STARLINK-32853, 62818

Orbit data source: Space-Track

STARLINK-32853, 62818 is a payload satellite owned by SpaceX/Seattle (US) in LEO that was launched on Fri, 24 Jan 2025 UTC via an FALCON 9 launch vehicle from the Air Force Western Test Range (AFWTR). Payload-class satellites include a variety of spacecraft equipped with specific instruments for various scientific and technological missions. These include communications satellites like Starlink; space stations such as the ISS; scientific satellites like the Hubble; Earth observation satellites from companies like Planet Labs, Umbra, and HawkEye 360; GPS; miniature CubeSats for education and research; and military/defense satellites.

Loading next visibility...
Identifier
62818, 2025-018N
Orbit
LEO
Country
Flag of USUS
Related business
Manufacturer
SpaceX/Seattle
Mission
Operational Commercial Communications
Bus & Motor
STARLINK V2M, Unknown motor
Mass
730 kg wet, ~700 kg dry
Launch date (UTC)
2025-01-24 (10 months ago)
Launch vehicle
FALCON 9
Launch site
Air Force Western Test Range (AFWTR)
Object type
Payload
Rocket body
Debris
Shape & HBR
Box + 2 Pan, 17.7 m
Radar Cross Section
33.884 m², Large (>1 m²)

Expand to show TLE details & history
Last TLE update: 13 hours ago

TLE from 13 hours ago
0 STARLINK-32853
1 62818U 25018N   25342.78115460  .00046965  00000-0  15877-2 0  9999
2 62818  53.1581  11.5894 0001133  70.4984 289.6139 15.30202599 49263
Epoch: 2025-12-08T18:44Z
TLE epoch observation values (Epoch: 2025-12-08T18:44:51.757Z)
Latitude
-0.00002°
Longitude
12.59846°
Altitude
475.846 km
Speed
7.629 km/s
True Right ascension
00h 46m 21s
True Declination
0° 00' 00"
Sunlit
Object was in full shadow at epoch
Visualization orbit readout
Latitude
Unknown
Longitude
Unknown
Altitude
Unknown
Speed
Unknown
Apparent Right ascension
Unknown
Apparent Declination
Unknown
Sunlit
N/A
Visualization observer readout
Local Sidereal Time
06:13:55
Azimuth
Unknown
Elevation
Unknown
Doppler factor
Unknown
Orbital elements
Apogee altitude
476.241 km
Perigee altitude
474.688 km
Semi-major axis
6,853.601 km
Eccentricity
0.00011
Inclination
53.1581°
RAAN
11.5894°
Arg. of periapsis
70.4984°
True anomaly
289.60167°
Mean anomaly
289.6139°
Eccentric anomaly
289.60778°
Mean motion
3.8253 °/min
Orbital period
94.11 mins
BSTAR
0.0015877
Loading maneuver chart data...
Computing Atmospheric mass density...
Loading historical data...
Loading historical data...
Loading historical data...
Loading historical data...
Loading historical data...
Loading historical data...
Loading historical data...

Documentation

Showing up to 5 results
|